Regional Weather Roundup
Issued by NWS Charleston, WV

Home | Current Version | Previous Version | Text Only | Print | Product List | Glossary Off
Versions: 1 2 3 4 5 6 7 8 9 10 11 12 13 14 15 16 17 18 19 20 21 22 23 24 25 26 27 28 29 30 31 32 33 34 35 36 37 38 39 40 41 42 43 44 45 46 47 48 49 50

000
ASUS41 KRLX 110810
RWRRLX
West Virginia Regional Weather Roundup
National Weather Service Charleston WV
300 AM EST THU FEB 11 2016

Note: "fair" indicates few or no clouds below 12,000 feet with no
significant weather and/or obstructions to visibility.

WVZ003-110900-
Northern Panhandle of West Virginia

CITY           SKY/WX    TMP DP  RH WIND       PRES   REMARKS
WHEELING       CLOUDY    13   5  70 W14G23    29.99R WCI  -2
$$

WVZ009-110900-
Northwest West Virginia

CITY           SKY/WX    TMP DP  RH WIND       PRES   REMARKS
PARKERSBURG    CLOUDY    12   4  70 W8G17     30.12S WCI   0
$$

WVZ006-110900-
Western West Virginia

CITY           SKY/WX    TMP DP  RH WIND       PRES   REMARKS
HUNTINGTON     CLOUDY    18   7  62 W7        30.14S WCI   9
$$

WVZ015-110900-
West Central West Virginia

CITY           SKY/WX    TMP DP  RH WIND       PRES   REMARKS
CHARLESTON     FLURRIES  17   6  62 W9G20     30.11R WCI   6
$$

WVZ022-031-110900-
North Central West Virginia

CITY           SKY/WX    TMP DP  RH WIND       PRES   REMARKS
CLARKSBURG     FLURRIES  13   6  74 W9        30.03S WCI   1
MORGANTOWN     CLOUDY    12   3  67 SW10      30.01R WCI  -1
$$

WVZ025-035-042-045-110900-
Southern West Virginia

CITY           SKY/WX    TMP DP  RH WIND       PRES   REMARKS
BECKLEY        LGT SNOW  11   4  73 W10G20    29.97S WCI  -3
LOGAN          CLOUDY    16   7  67 W8        30.07S WCI   5
BLUEFIELD      LGT SNOW  10   5  80 W9        29.95S WCI  -3
LEWISBURG      CLOUDY    13   5  69 W5        29.96S WCI   6
$$

WVZ047-110900-
Northern Mountains of West Virginia

CITY           SKY/WX    TMP DP  RH WIND       PRES   REMARKS
ELKINS         LGT SNOW  10   2  69 SW13G22   29.97R WCI  -5
$$

WVZ052-110900-
Eastern Panhandle of West Virginia

CITY           SKY/WX    TMP DP  RH WIND       PRES   REMARKS
MARTINSBURG      N/A     19   4  51 W18       29.96S WCI   4
PETERSBURG     FLURRIES  17   6  63 CALM      30.00R
$$



USA.gov is the U.S. government's official web portal to all federal, state and local government web resources and services.